This is the latest recevied weather packets stored in our database for station/object SQ9NFI-4. If no packets are shown the sender has not sent any weather packets the latest 10 day(s).
| Time | Temp. | Humidity | Pressure | Rain* | Wind** | Luminosity | Snow |
|---|---|---|---|---|---|---|---|
| 1777568716 | 13.33° C | 30% | 1027.4 hPa | 0 mm | - | 46 W/m² | - |
| 1777568416 | 12.78° C | 30% | 1027.4 hPa | 0 mm | - | 47 W/m² | - |
| 1777568116 | 12.78° C | 29% | 1027.4 hPa | 0 mm | - | 53 W/m² | - |
| 1777567816 | 12.78° C | 28% | 1027.4 hPa | 0 mm | - | 54 W/m² | - |
| 1777567516 | 12.78° C | 28% | 1027.4 hPa | 0 mm | - | 56 W/m² | - |
| 1777567216 | 13.33° C | 27% | 1027.4 hPa | 0 mm | - | 54 W/m² | - |
| 1777566916 | 14.44° C | 26% | 1027.4 hPa | 0 mm | - | 88 W/m² | - |
| 1777566616 | 14.44° C | 25% | 1027.4 hPa | 0 mm | - | 101 W/m² | - |
| 1777566316 | 14.44° C | 25% | 1027.4 hPa | 0 mm | - | 112 W/m² | - |
| 1777566016 | 14.44° C | 25% | 1027.4 hPa | 0 mm | - | 120 W/m² | - |
| 1777565716 | 14.44° C | 25% | 1027.4 hPa | 0 mm | - | 134 W/m² | - |
| 1777565416 | 13.89° C | 26% | 1026.8 hPa | 0 mm | - | 129 W/m² | - |
| 1777565116 | 12.78° C | 26% | 1026.8 hPa | 0 mm | - | 71 W/m² | - |
| 1777564816 | 13.33° C | 25% | 1027.4 hPa | 0 mm | - | 71 W/m² | - |
| 1777564516 | 13.33° C | 23% | 1027.4 hPa | 0 mm | - | 86 W/m² | - |
| 1777564216 | 13.33° C | 25% | 1027.4 hPa | 0 mm | - | 105 W/m² | - |
| 1777563916 | 13.33° C | 26% | 1027.4 hPa | 0 mm | - | 87 W/m² | - |
| 1777563616 | 13.33° C | 23% | 1027.4 hPa | 0 mm | - | 76 W/m² | - |
| 1777563316 | 13.33° C | 23% | 1027.4 hPa | 0 mm | - | 67 W/m² | - |
| 1777563016 | 13.33° C | 23% | 1027.4 hPa | 0 mm | - | 96 W/m² | - |
| 1777562716 | 13.89° C | 22% | 1027.4 hPa | 0 mm | - | 90 W/m² | - |
| 1777562416 | 14.44° C | 22% | 1027.4 hPa | 0 mm | - | 134 W/m² | - |
| 1777562116 | 15° C | 21% | 1027.4 hPa | 0 mm | - | 247 W/m² | - |
| 1777561816 | 14.44° C | 24% | 1027.4 hPa | 0 mm | - | 252 W/m² | - |
| 1777561516 | 14.44° C | 22% | 1027.4 hPa | 0 mm | - | 127 W/m² | - |
* Rain latest hour (hover to see other rain measurements)
** Current wind speed in m/s (hover to see current wind gust speed)